This is the latest recevied weather packets stored in our database for station/object IU5JAE-13. If no packets are shown the sender has not sent any weather packets the latest 1 day(s).
| Time | Temp. | Humidity | Pressure | Rain* | Wind** | Luminosity | Snow |
|---|---|---|---|---|---|---|---|
| 1777989333 | 16.11° C | 96% | 1012.6 hPa | 0 mm | 0.45 m/s, 101° | 170 W/m² | - |
| 1777988731 | 16.11° C | 96% | 1012.7 hPa | 0 mm | 0.89 m/s, 72° | 142 W/m² | - |
| 1777988128 | 16.11° C | 96% | 1012.7 hPa | 0 mm | 0.89 m/s, 107° | 198 W/m² | - |
| 1777987526 | 15.56° C | 96% | 1012.7 hPa | 0 mm | 0.89 m/s, 104° | 209 W/m² | - |
| 1777986923 | 15.56° C | 97% | 1012.7 hPa | 0 mm | 1.34 m/s, 60° | 376 W/m² | - |
| 1777986321 | 15° C | 98% | 1012.8 hPa | 0.51 mm | 0.89 m/s, 77° | 154 W/m² | - |
| 1777985719 | 15° C | 99% | 1012.9 hPa | 2.29 mm | 0.89 m/s, 102° | 303 W/m² | - |
| 1777985116 | 15° C | 99% | 1012.9 hPa | 2.29 mm | 0.89 m/s, 91° | 123 W/m² | - |
| 1777984534 | 14.44° C | 99% | 1012.8 hPa | 2.29 mm | 0.45 m/s, 94° | 166 W/m² | - |
| 1777983932 | 14.44° C | 99% | 1012.9 hPa | 2.29 mm | 0.89 m/s, 80° | 126 W/m² | - |
| 1777983329 | 14.44° C | 99% | 1013 hPa | 2.29 mm | 0.45 m/s, 160° | 70 W/m² | - |
| 1777982727 | 14.44° C | 99% | 1012.9 hPa | 2.03 mm | 0.89 m/s, 102° | 86 W/m² | - |
| 1777982124 | 14.44° C | 99% | 1012.9 hPa | 0.25 mm | 0.45 m/s, 121° | 141 W/m² | - |
| 1777981522 | 14.44° C | 99% | 1012.9 hPa | 0.25 mm | 0.89 m/s, 93° | 202 W/m² | - |
| 1777980919 | 13.89° C | 99% | 1012.8 hPa | 0.51 mm | 0.89 m/s, 86° | 227 W/m² | - |
| 1777980317 | 13.89° C | 99% | 1012.8 hPa | 0.51 mm | 0.89 m/s, 113° | 74 W/m² | - |
| 1777979735 | 13.33° C | 99% | 1012.8 hPa | 0.51 mm | 0.89 m/s, 194° | 128 W/m² | - |
| 1777979132 | 13.33° C | 99% | 1013 hPa | 0.76 mm | 0.89 m/s, 111° | 63 W/m² | - |
| 1777978530 | 13.33° C | 99% | 1012.8 hPa | 1.02 mm | 0.45 m/s, 80° | 56 W/m² | - |
| 1777977928 | 13.33° C | 99% | 1012.9 hPa | 1.78 mm | 0.45 m/s, 111° | 55 W/m² | - |
| 1777977325 | 13.33° C | 99% | 1012.8 hPa | 1.52 mm | 0.45 m/s, 114° | 65 W/m² | - |
| 1777976723 | 12.78° C | 99% | 1012.8 hPa | 1.52 mm | 0.45 m/s, 166° | 108 W/m² | - |
| 1777976120 | 12.78° C | 99% | 1012.9 hPa | 3.3 mm | 0 m/s | 51 W/m² | - |
| 1777975518 | 12.78° C | 99% | 1012.9 hPa | 6.1 mm | 0 m/s | 50 W/m² | - |
| 1777974916 | 12.78° C | 99% | 1012.9 hPa | 9.4 mm | 0.89 m/s, 221° | 33 W/m² | - |
* Rain latest hour (hover to see other rain measurements)
** Current wind speed in m/s (hover to see current wind gust speed)